TimeEST,TemperatureF,Dew PointF,Humidity,Sea Level PressureIn,VisibilityMPH,Wind Direction,Wind SpeedMPH,Gust SpeedMPH,PrecipitationIn,Events,Conditions,WindDirDegrees,DateUTC
12:56 AM,45.0,32.0,60,29.93,10.0,SSW,5.8,-,N/A,,Partly Cloudy,200,2013-02-16 05:56:00
1:56 AM,42.1,36.0,79,29.97,10.0,North,15.0,21.9,N/A,,Partly Cloudy,360,2013-02-16 06:56:00
2:56 AM,41.0,35.1,79,29.95,10.0,North,13.8,-,N/A,,Partly Cloudy,350,2013-02-16 07:56:00
3:56 AM,41.0,34.0,76,29.95,10.0,North,16.1,26.5,N/A,,Partly Cloudy,360,2013-02-16 08:56:00
4:56 AM,39.9,34.0,79,29.94,10.0,North,11.5,21.9,N/A,,Partly Cloudy,10,2013-02-16 09:56:00
5:56 AM,39.0,35.1,86,29.93,10.0,North,8.1,-,N/A,,Partly Cloudy,10,2013-02-16 10:56:00
6:56 AM,37.9,34.0,86,29.92,10.0,North,8.1,-,N/A,,Scattered Clouds,10,2013-02-16 11:56:00
7:56 AM,41.0,36.0,82,29.93,10.0,NNW,11.5,-,N/A,,Scattered Clouds,340,2013-02-16 12:56:00
8:56 AM,44.1,35.1,71,29.91,10.0,North,12.7,-,N/A,,Mostly Cloudy,10,2013-02-16 13:56:00
9:56 AM,45.0,36.0,71,29.91,10.0,North,18.4,-,N/A,,Mostly Cloudy,360,2013-02-16 14:56:00
10:56 AM,44.1,35.1,71,29.90,10.0,North,17.3,21.9,N/A,,Mostly Cloudy,350,2013-02-16 15:56:00
11:56 AM,42.1,35.1,76,29.88,10.0,NNW,15.0,23.0,N/A,,Overcast,340,2013-02-16 16:56:00
12:56 PM,39.9,34.0,79,29.86,10.0,North,17.3,23.0,0.00,Rain,Light Rain,360,2013-02-16 17:56:00
1:56 PM,39.0,35.1,86,29.82,10.0,North,10.4,-,0.01,Rain,Light Rain,10,2013-02-16 18:56:00
2:56 PM,37.9,35.1,89,29.79,8.0,North,15.0,20.7,0.02,Rain,Light Rain,10,2013-02-16 19:56:00
3:56 PM,37.0,35.1,93,29.78,6.0,North,12.7,21.9,0.05,Rain,Light Rain,360,2013-02-16 20:56:00
4:56 PM,35.1,34.0,96,29.78,3.0,North,12.7,-,0.07,Rain,Light Rain,360,2013-02-16 21:56:00
5:10 PM,33.8,32.0,93,29.77,1.0,North,11.5,-,0.02,Rain-Snow,Light Rain,350,2013-02-16 22:10:00
5:49 PM,33.8,32.0,93,29.76,1.0,North,10.4,-,0.07,Snow,Light Snow,360,2013-02-16 22:49:00
5:56 PM,34.0,33.1,96,29.77,1.0,North,11.5,-,0.08,Snow,Light Snow,360,2013-02-16 22:56:00
6:48 PM,33.8,32.0,93,29.76,4.0,North,12.7,-,0.05,Snow,Light Snow,10,2013-02-16 23:48:00
6:56 PM,34.0,32.0,92,29.78,4.0,North,11.5,-,0.06,Snow,Light Snow,360,2013-02-16 23:56:00
7:56 PM,35.1,33.1,92,29.77,3.0,North,20.7,27.6,0.07,Snow,Light Snow,360,2013-02-17 00:56:00
8:56 PM,34.0,30.0,85,29.76,3.0,North,20.7,32.2,0.06,Snow,Light Snow,360,2013-02-17 01:56:00
9:45 PM,33.8,30.2,87,29.76,2.5,North,19.6,29.9,0.02,Snow,Light Snow,360,2013-02-17 02:45:00
9:56 PM,34.0,32.0,92,29.77,2.0,North,21.9,31.1,0.02,Snow,Light Snow,360,2013-02-17 02:56:00
10:35 PM,33.8,30.2,87,29.76,1.8,North,17.3,32.2,0.01,Snow,Light Snow,360,2013-02-17 03:35:00
10:56 PM,34.0,30.0,85,29.76,2.5,North,16.1,26.5,0.01,Snow,Light Snow,360,2013-02-17 03:56:00
11:56 PM,34.0,30.0,85,29.77,2.5,North,25.3,34.5,0.00,Snow,Light Snow,350,2013-02-17 04:56:00